Date String (YYYY-MM-DD hh:mm:ss) UTC,Instrument flags,Ambient pressure (hPa),Sample flow (lpm),Bypass flow (lpm),Sample temperature (°C),Ambient temperature (°C),ASC tube jacket temperature (°C),LED temperature (°C),Box temperature (°C),Sample RH (%),Span deviation,Mass concentration (μg/m³),Mass concentration (μg/m³),Mass concentration (μg/m³)
DateTimeUTC,F1_M11,P_M11,Q1_M11,Q2_M11,T1_M11,T2_M11,T3_M11,T4_M11,T5_M11,U1_M11,ZSPAN_M11,X0_M11,X2_M11,X1_M11
2022-03-06 00:00:00,,0821.5,4.99,0.00,22.1,21.4,00.0,31.2,23.9,13.5,0000.0,0008.73,0005.25,0005.04
2022-03-06 00:01:00,,0821.5,4.99,0.00,22.1,21.4,00.0,31.2,23.9,13.6,0000.0,0008.69,0005.23,0005.02
2022-03-06 00:02:00,,0821.4,5.01,0.00,22.1,21.4,00.0,31.2,23.9,13.5,0000.0,0008.69,0005.22,0005.01
2022-03-06 00:03:00,,0821.4,4.99,0.00,22.1,21.4,00.0,31.2,23.8,13.5,0000.0,0008.73,0005.24,0005.01
2022-03-06 00:04:00,,0821.5,4.99,0.00,22.1,21.3,00.0,31.2,23.8,13.5,0000.0,0008.57,0005.24,0005.01
2022-03-06 00:05:00,,0821.6,5.00,0.00,22.0,21.3,00.0,31.2,23.7,13.4,0000.0,0008.44,0005.22,0005.00
2022-03-06 00:06:00,,0821.6,5.00,0.00,22.0,21.2,00.0,31.1,23.7,13.4,0000.0,0007.80,0005.21,0004.99
2022-03-06 00:07:00,,0821.6,5.00,0.00,21.9,21.2,00.0,31.1,23.6,13.4,0000.0,0007.70,0005.21,0004.98
2022-03-06 00:08:00,,0821.6,4.99,0.00,21.9,21.1,00.0,31.1,23.5,13.3,0000.0,0007.61,0005.21,0004.97
2022-03-06 00:09:00,,0821.7,5.01,0.00,21.9,21.0,00.0,31.1,23.5,13.4,0000.0,0007.61,0005.23,0004.97
2022-03-06 00:10:00,,0821.7,5.00,0.00,21.8,20.9,00.0,31.0,23.4,13.3,0000.0,0007.56,0005.23,0004.99
2022-03-06 00:11:00,,0821.7,4.98,0.00,21.8,20.9,00.0,31.0,23.4,13.3,0000.0,0007.58,0005.24,0005.00
2022-03-06 00:12:00,,0821.7,5.01,0.00,21.8,21.5,00.0,31.0,23.5,13.3,0000.0,0007.68,0005.27,0005.01
2022-03-06 00:13:00,,0821.6,5.00,0.00,22.0,22.3,00.0,31.1,23.9,13.4,0001.6,0007.73,0005.28,0005.02
2022-03-06 00:14:00,,0821.7,5.00,0.00,22.1,22.7,00.0,31.1,24.1,13.3,0002.5,0007.76,0005.27,0005.01
2022-03-06 00:15:00,,0821.6,4.99,0.00,22.1,22.5,00.0,31.1,24.0,13.3,0001.3,0007.73,0005.25,0005.00
2022-03-06 00:16:00,,0821.7,5.00,0.00,22.1,22.2,00.0,31.1,23.9,13.3,0000.0,0007.79,0005.27,0005.00
2022-03-06 00:17:00,,0821.8,5.00,0.00,22.1,21.9,00.0,31.1,23.8,13.4,0000.0,0007.86,0005.29,0005.00
2022-03-06 00:18:00,,0821.9,5.00,0.00,22.0,21.7,00.0,31.1,23.7,13.5,0000.0,0007.86,0005.28,0005.00
2022-03-06 00:19:00,,0821.8,4.99,0.00,22.0,21.5,00.0,31.1,23.6,13.4,0000.0,0007.84,0005.27,0004.99
2022-03-06 00:20:00,,0821.8,5.01,0.00,21.9,21.4,00.0,31.0,23.5,13.4,0000.0,0007.84,0005.26,0004.98
2022-03-06 00:21:00,,0821.8,4.99,0.00,21.9,21.2,00.0,31.0,23.5,13.6,0000.0,0007.88,0005.26,0004.97
2022-03-06 00:22:00,,0821.8,4.99,0.00,21.8,21.1,00.0,31.0,23.5,13.7,0000.0,0007.82,0005.25,0004.97
2022-03-06 00:23:00,,0821.8,5.01,0.00,21.8,21.1,00.0,31.0,23.4,13.7,0000.0,0007.74,0005.23,0004.96
2022-03-06 00:24:00,,0821.8,5.00,0.00,21.8,21.0,00.0,31.0,23.3,13.8,0000.0,0007.65,0005.21,0004.95
2022-03-06 00:25:00,,0821.9,4.99,0.00,21.7,20.9,00.0,30.9,23.3,13.8,0000.0,0007.60,0005.21,0004.95
2022-03-06 00:26:00,,0821.8,5.01,0.00,21.7,20.9,00.0,30.9,23.3,13.9,0000.0,0007.64,0005.19,0004.94
2022-03-06 00:27:00,,0821.9,5.00,0.00,21.7,20.9,00.0,30.9,23.3,13.9,0000.0,0007.82,0005.17,0004.93
2022-03-06 00:28:00,,0822.1,5.00,0.00,21.6,20.8,00.0,30.9,23.3,14.0,0000.0,0007.82,0005.17,0004.92
2022-03-06 00:29:00,,0822.0,5.00,0.00,21.6,20.8,00.0,30.8,23.2,14.0,0000.0,0008.53,0005.16,0004.92
2022-03-06 00:30:00,,0822.0,5.01,0.00,21.6,20.8,00.0,30.8,23.1,13.9,0000.1,0008.72,0005.16,0004.93
2022-03-06 00:31:00,,0822.1,5.00,0.00,21.5,20.7,00.0,30.8,23.1,13.9,0000.6,0008.74,0005.19,0004.96
2022-03-06 00:32:00,,0822.0,4.98,0.00,21.5,20.5,00.0,30.8,23.1,13.9,0000.0,0009.47,0005.20,0004.98
2022-03-06 00:33:00,,0822.1,5.01,0.00,21.5,20.6,00.0,30.7,23.1,13.9,0000.0,0009.61,0005.24,0005.00
2022-03-06 00:34:00,,0822.1,5.00,0.00,21.6,21.4,00.0,30.8,23.3,14.0,0000.0,0009.88,0005.25,0005.01
2022-03-06 00:35:00,,0822.1,4.99,0.00,21.7,22.3,00.0,30.8,23.7,13.8,0000.0,0010.08,0005.28,0005.03
2022-03-06 00:36:00,,0822.2,5.00,0.00,21.9,22.7,00.0,30.8,23.9,13.7,0000.0,0010.10,0005.30,0005.05
2022-03-06 00:37:00,,0822.2,5.01,0.00,21.9,22.4,00.0,30.9,23.8,13.6,0000.0,0010.04,0005.31,0005.06
2022-03-06 00:38:00,,0822.2,4.98,0.00,21.9,22.2,00.0,30.9,23.7,13.7,0000.0,0009.76,0005.30,0005.07
2022-03-06 00:39:00,,0822.2,5.00,0.00,21.9,21.9,00.0,30.9,23.6,13.8,0000.0,0009.73,0005.30,0005.09
2022-03-06 00:40:00,,0822.2,5.00,0.00,21.9,21.7,00.0,30.9,23.6,13.9,0000.0,0009.15,0005.32,0005.11
2022-03-06 00:41:00,,0822.3,5.00,0.00,21.8,21.6,00.0,30.9,23.6,14.1,0000.0,0008.80,0005.34,0005.13
2022-03-06 00:42:00,,0822.3,5.01,0.00,21.8,21.4,00.0,30.8,23.5,14.1,0000.0,0008.80,0005.35,0005.14
2022-03-06 00:43:00,,0822.3,5.01,0.00,21.8,21.3,00.0,30.8,23.4,14.1,0000.0,0008.83,0005.35,0005.13
2022-03-06 00:44:00,,0822.3,4.99,0.00,21.7,21.2,00.0,30.8,23.4,14.1,0000.0,0009.02,0005.35,0005.14
2022-03-06 00:45:00,,0822.4,4.99,0.00,21.7,21.1,00.0,30.8,23.3,14.0,0000.0,0008.85,0005.36,0005.14
2022-03-06 00:46:00,,0822.4,5.01,0.00,21.7,21.0,00.0,30.8,23.3,14.0,0000.0,0008.97,0005.35,0005.14
2022-03-06 00:47:00,,0822.3,5.00,0.00,21.6,20.9,00.0,30.8,23.3,14.1,0001.1,0008.99,0005.35,0005.15
2022-03-06 00:48:00,,0822.3,5.00,0.00,21.6,20.9,00.0,30.8,23.2,14.1,0000.9,0008.98,0005.35,0005.15
2022-03-06 00:49:00,,0822.3,4.99,0.00,21.6,20.9,00.0,30.7,23.2,14.1,0000.7,0009.00,0005.36,0005.17
2022-03-06 00:50:00,,0822.3,5.01,0.00,21.5,20.8,00.0,30.7,23.2,14.1,0000.8,0009.05,0005.40,0005.17
2022-03-06 00:51:00,,0822.3,4.99,0.00,21.5,20.8,00.0,30.7,23.1,14.1,0000.8,0009.08,0005.41,0005.18
2022-03-06 00:52:00,,0822.5,5.00,0.00,21.5,20.8,00.0,30.7,23.1,14.2,0000.2,0009.06,0005.39,0005.17
2022-03-06 00:53:00,,0822.4,5.02,0.00,21.5,20.7,00.0,30.7,23.0,14.1,0000.2,0009.03,0005.37,0005.17
2022-03-06 00:54:00,,0822.4,4.99,0.00,21.4,20.7,00.0,30.6,23.0,14.1,0000.1,0008.55,0005.40,0005.18
2022-03-06 00:55:00,,0822.4,4.99,0.00,21.4,20.6,00.0,30.6,23.0,14.2,0000.2,0008.06,0005.41,0005.19
2022-03-06 00:56:00,,0822.5,5.01,0.00,21.4,21.0,00.0,30.6,23.1,14.2,0000.0,0008.10,0005.43,0005.20
2022-03-06 00:57:00,,0822.5,5.00,0.00,21.6,21.9,00.0,30.7,23.4,14.1,0000.0,0008.01,0005.48,0005.22
2022-03-06 00:58:00,,0822.6,5.00,0.00,21.7,22.5,00.0,30.7,23.7,14.1,0000.0,0007.98,0005.51,0005.24
2022-03-06 00:59:00,,0822.6,5.01,0.00,21.8,22.4,00.0,30.7,23.7,14.0,0000.0,0008.09,0005.54,0005.26
